Year,Month,Day,Hour,Minute,Value (Times are PST for temperature in C)
2007,08,29,00,00,12.50
2007,08,29,00,01,12.50
2007,08,29,00,02,12.50
2007,08,29,00,03,12.50
2007,08,29,00,04,12.50
2007,08,29,00,05,12.50
2007,08,29,00,06,12.50
2007,08,29,00,07,12.50
2007,08,29,00,08,12.50
2007,08,29,00,09,12.50
2007,08,29,00,10,12.50
2007,08,29,00,11,12.50
2007,08,29,00,12,12.50
2007,08,29,00,13,12.50
2007,08,29,00,14,12.50
2007,08,29,00,15,12.50
2007,08,29,00,16,12.60
2007,08,29,00,17,12.60
2007,08,29,00,18,12.60
2007,08,29,00,19,12.60
2007,08,29,00,20,12.60
2007,08,29,00,21,12.60
2007,08,29,00,22,12.60
2007,08,29,00,23,12.70
2007,08,29,00,24,12.70
2007,08,29,00,25,12.70
2007,08,29,00,26,12.70
2007,08,29,00,27,12.70
2007,08,29,00,28,12.70
2007,08,29,00,29,12.70
2007,08,29,00,30,12.80
2007,08,29,00,31,12.80
2007,08,29,00,32,12.80
2007,08,29,00,33,12.80
2007,08,29,00,34,12.80
2007,08,29,00,35,12.80
2007,08,29,00,36,12.80
2007,08,29,00,37,12.80
2007,08,29,00,38,12.80
2007,08,29,00,39,12.80
2007,08,29,00,40,12.80
2007,08,29,00,41,12.90
2007,08,29,00,42,12.90
2007,08,29,00,43,12.90
2007,08,29,00,44,12.90
2007,08,29,00,45,12.90
2007,08,29,00,46,12.90
2007,08,29,00,47,13.00
2007,08,29,00,48,13.00
2007,08,29,00,49,13.00
2007,08,29,00,50,13.00
2007,08,29,00,51,13.00
2007,08,29,00,52,13.10
2007,08,29,00,53,13.10
2007,08,29,00,54,13.20
2007,08,29,00,55,13.30
2007,08,29,00,56,13.40
2007,08,29,00,57,13.40
2007,08,29,00,58,13.40
2007,08,29,00,59,13.50
2007,08,29,01,00,13.50
2007,08,29,01,01,13.50
2007,08,29,01,02,13.50
2007,08,29,01,03,13.50
2007,08,29,01,04,13.50
2007,08,29,01,05,13.50
2007,08,29,01,06,13.50
2007,08,29,01,07,13.50
2007,08,29,01,08,13.50
2007,08,29,01,09,13.50
2007,08,29,01,10,13.50
2007,08,29,01,11,13.50
2007,08,29,01,12,13.50
2007,08,29,01,13,13.50
2007,08,29,01,14,13.50
2007,08,29,01,15,13.50
2007,08,29,01,16,13.50
2007,08,29,01,17,13.50
2007,08,29,01,18,13.50
2007,08,29,01,19,13.50
2007,08,29,01,20,13.50
2007,08,29,01,21,13.50
2007,08,29,01,22,13.50
2007,08,29,01,23,13.60
2007,08,29,01,24,13.60
2007,08,29,01,25,13.60
2007,08,29,01,26,13.60
2007,08,29,01,27,13.60
2007,08,29,01,28,13.60
2007,08,29,01,29,13.60
2007,08,29,01,30,13.60
2007,08,29,01,31,13.60
2007,08,29,01,32,13.60
2007,08,29,01,33,13.60
2007,08,29,01,34,13.60
2007,08,29,01,35,13.60
2007,08,29,01,36,13.60
2007,08,29,01,37,13.60
2007,08,29,01,38,13.60
2007,08,29,01,39,13.50
2007,08,29,01,40,13.50
2007,08,29,01,41,13.50
2007,08,29,01,42,13.50
2007,08,29,01,43,13.50
2007,08,29,01,44,13.50
2007,08,29,01,45,13.50
2007,08,29,01,46,13.40
2007,08,29,01,47,13.40
2007,08,29,01,48,13.40
2007,08,29,01,49,13.40
2007,08,29,01,50,13.40
2007,08,29,01,51,13.30
2007,08,29,01,52,13.30
2007,08,29,01,53,13.30
2007,08,29,01,54,13.30
2007,08,29,01,55,13.30
2007,08,29,01,56,13.20
2007,08,29,01,57,13.20
2007,08,29,01,58,13.20
2007,08,29,01,59,13.10
2007,08,29,02,00,13.00
2007,08,29,02,01,13.00
2007,08,29,02,02,12.90
2007,08,29,02,03,12.90
2007,08,29,02,04,12.80
2007,08,29,02,05,12.80
2007,08,29,02,06,12.80
2007,08,29,02,07,12.80
2007,08,29,02,08,12.80
2007,08,29,02,09,12.70
2007,08,29,02,10,12.70
2007,08,29,02,11,12.70
2007,08,29,02,12,12.60
2007,08,29,02,13,12.60
2007,08,29,02,14,12.60
2007,08,29,02,15,12.60
2007,08,29,02,16,12.50
2007,08,29,02,17,12.50
2007,08,29,02,18,12.50
2007,08,29,02,19,12.50
2007,08,29,02,20,12.40
2007,08,29,02,21,12.40
2007,08,29,02,22,12.40
2007,08,29,02,23,12.40
2007,08,29,02,24,12.30
2007,08,29,02,25,12.30
2007,08,29,02,26,12.30
2007,08,29,02,27,12.30
2007,08,29,02,28,12.30
2007,08,29,02,29,12.30
2007,08,29,02,30,12.30
2007,08,29,02,31,12.30
2007,08,29,02,32,12.30
2007,08,29,02,33,12.30
2007,08,29,02,34,12.30
2007,08,29,02,35,12.30
2007,08,29,02,36,12.30
2007,08,29,02,37,12.40
2007,08,29,02,38,12.40
2007,08,29,02,39,12.40
2007,08,29,02,40,12.40
2007,08,29,02,41,12.40
2007,08,29,02,42,12.40
2007,08,29,02,43,12.40
2007,08,29,02,44,12.40
2007,08,29,02,45,12.40
2007,08,29,02,46,12.40
2007,08,29,02,47,12.30
2007,08,29,02,48,12.30
2007,08,29,02,49,12.30
2007,08,29,02,50,12.30
2007,08,29,02,51,12.30
2007,08,29,02,52,12.30
2007,08,29,02,53,12.30
2007,08,29,02,54,12.30
2007,08,29,02,55,12.30
2007,08,29,02,56,12.30
2007,08,29,02,57,12.30
2007,08,29,02,58,12.30
2007,08,29,02,59,12.30
2007,08,29,03,00,12.30
2007,08,29,03,01,12.30
2007,08,29,03,02,12.30
2007,08,29,03,03,12.30
2007,08,29,03,04,12.30
2007,08,29,03,05,12.30
2007,08,29,03,06,12.30
2007,08,29,03,07,12.30
2007,08,29,03,08,12.30
2007,08,29,03,09,12.30
2007,08,29,03,10,12.30
2007,08,29,03,11,12.30
2007,08,29,03,12,12.30
2007,08,29,03,13,12.30
2007,08,29,03,14,12.30
2007,08,29,03,15,12.30
2007,08,29,03,16,12.30
2007,08,29,03,17,12.30
2007,08,29,03,18,12.30
2007,08,29,03,19,12.30
2007,08,29,03,20,12.30
2007,08,29,03,21,12.30
2007,08,29,03,22,12.30
2007,08,29,03,23,12.30
2007,08,29,03,24,12.30
2007,08,29,03,25,12.40
2007,08,29,03,26,12.40
2007,08,29,03,27,12.40
2007,08,29,03,28,12.40
2007,08,29,03,29,12.40
2007,08,29,03,30,12.40
2007,08,29,03,31,12.40
2007,08,29,03,32,12.30
2007,08,29,03,33,12.30
2007,08,29,03,34,12.30
2007,08,29,03,35,12.30
2007,08,29,03,36,12.30
2007,08,29,03,37,12.30
2007,08,29,03,38,12.30
2007,08,29,03,39,12.30
2007,08,29,03,40,12.30
2007,08,29,03,41,12.30
2007,08,29,03,42,12.30
2007,08,29,03,43,12.30
2007,08,29,03,44,12.30
2007,08,29,03,45,12.40
2007,08,29,03,46,12.40
2007,08,29,03,47,12.40
2007,08,29,03,48,12.40
2007,08,29,03,49,12.40
2007,08,29,03,50,12.40
2007,08,29,03,51,12.40
2007,08,29,03,52,12.40
2007,08,29,03,53,12.40
2007,08,29,03,54,12.40
2007,08,29,03,55,12.40
2007,08,29,03,56,12.40
2007,08,29,03,57,12.40
2007,08,29,03,58,12.40
2007,08,29,03,59,12.40
2007,08,29,04,00,12.40
2007,08,29,04,01,12.40
2007,08,29,04,02,12.40
2007,08,29,04,03,12.40
2007,08,29,04,04,12.40
2007,08,29,04,05,12.40
2007,08,29,04,06,12.40
2007,08,29,04,07,12.40
2007,08,29,04,08,12.40
2007,08,29,04,09,12.40
2007,08,29,04,10,12.40
2007,08,29,04,11,12.40
2007,08,29,04,12,12.40
2007,08,29,04,13,12.40
2007,08,29,04,14,12.40
2007,08,29,04,15,12.40
2007,08,29,04,16,12.40
2007,08,29,04,17,12.30
2007,08,29,04,18,12.30
2007,08,29,04,19,12.30
2007,08,29,04,20,12.30
2007,08,29,04,21,12.30
2007,08,29,04,22,12.30
2007,08,29,04,23,12.30
2007,08,29,04,24,12.30
2007,08,29,04,25,12.30
2007,08,29,04,26,12.30
2007,08,29,04,27,12.30
2007,08,29,04,28,12.30
2007,08,29,04,29,12.30
2007,08,29,04,30,12.30
2007,08,29,04,31,12.30
2007,08,29,04,32,12.30
2007,08,29,04,33,12.30
2007,08,29,04,34,12.30
2007,08,29,04,35,12.30
2007,08,29,04,36,12.30
2007,08,29,04,37,12.30
2007,08,29,04,38,12.30
2007,08,29,04,39,12.30
2007,08,29,04,40,12.30
2007,08,29,04,41,12.30
2007,08,29,04,42,12.30
2007,08,29,04,43,12.30
2007,08,29,04,44,12.30
2007,08,29,04,45,12.30
2007,08,29,04,46,12.30
2007,08,29,04,47,12.30
2007,08,29,04,48,12.30
2007,08,29,04,49,12.30
2007,08,29,04,50,12.30
2007,08,29,04,51,12.30
2007,08,29,04,52,12.30
2007,08,29,04,53,12.30
2007,08,29,04,54,12.30
2007,08,29,04,55,12.30
2007,08,29,04,56,12.30
2007,08,29,04,57,12.30
2007,08,29,04,58,12.30
2007,08,29,04,59,12.30
2007,08,29,05,00,12.20
2007,08,29,05,01,12.20
2007,08,29,05,02,12.20
2007,08,29,05,03,12.20
2007,08,29,05,04,12.20
2007,08,29,05,05,12.20
2007,08,29,05,06,12.10
2007,08,29,05,07,12.10
2007,08,29,05,08,12.10
2007,08,29,05,09,12.10
2007,08,29,05,10,12.10
2007,08,29,05,11,12.20
2007,08,29,05,12,12.20
2007,08,29,05,13,12.20
2007,08,29,05,14,12.20
2007,08,29,05,15,12.20
2007,08,29,05,16,12.20
2007,08,29,05,17,12.20
2007,08,29,05,18,12.30
2007,08,29,05,19,12.30
2007,08,29,05,20,12.30
2007,08,29,05,21,12.30
2007,08,29,05,22,12.30
2007,08,29,05,23,12.30
2007,08,29,05,24,12.30
2007,08,29,05,25,12.30
2007,08,29,05,26,12.30
2007,08,29,05,27,12.30
2007,08,29,05,28,12.30
2007,08,29,05,29,12.30
2007,08,29,05,30,12.30
2007,08,29,05,31,12.30
2007,08,29,05,32,12.30
2007,08,29,05,33,12.30
2007,08,29,05,34,12.20
2007,08,29,05,35,12.20
2007,08,29,05,36,12.20
2007,08,29,05,37,12.20
2007,08,29,05,38,12.20
2007,08,29,05,39,12.20
2007,08,29,05,40,12.20
2007,08,29,05,41,12.20
2007,08,29,05,42,12.20
2007,08,29,05,43,12.10
2007,08,29,05,44,12.10
2007,08,29,05,45,12.10
2007,08,29,05,46,12.10
2007,08,29,05,47,12.10
2007,08,29,05,48,12.10
2007,08,29,05,49,12.00
2007,08,29,05,50,12.00
2007,08,29,05,51,12.00
2007,08,29,05,52,12.00
2007,08,29,05,53,12.00
2007,08,29,05,54,12.00
2007,08,29,05,55,12.00
2007,08,29,05,56,12.00
2007,08,29,05,57,12.00
2007,08,29,05,58,11.90
2007,08,29,05,59,11.90
2007,08,29,06,00,11.90
2007,08,29,06,01,11.90
2007,08,29,06,02,11.90
2007,08,29,06,03,11.90
2007,08,29,06,04,11.90
2007,08,29,06,05,11.90
2007,08,29,06,06,11.90
2007,08,29,06,07,11.90
2007,08,29,06,08,11.90
2007,08,29,06,09,11.90
2007,08,29,06,10,11.80
2007,08,29,06,11,11.80
2007,08,29,06,12,11.80
2007,08,29,06,13,11.80
2007,08,29,06,14,11.80
2007,08,29,06,15,11.80
2007,08,29,06,16,11.80
2007,08,29,06,17,11.80
2007,08,29,06,18,11.70
2007,08,29,06,19,11.70
2007,08,29,06,20,11.70
2007,08,29,06,21,11.70
2007,08,29,06,22,11.70
2007,08,29,06,23,11.70
2007,08,29,06,24,11.70
2007,08,29,06,25,11.80
2007,08,29,06,26,11.80
2007,08,29,06,27,11.80
2007,08,29,06,28,11.70
2007,08,29,06,29,11.70
2007,08,29,06,30,11.70
2007,08,29,06,31,11.70
2007,08,29,06,32,11.70
2007,08,29,06,33,11.60
2007,08,29,06,34,11.60
2007,08,29,06,35,11.60
2007,08,29,06,36,11.60
2007,08,29,06,37,11.60
2007,08,29,06,38,11.60
2007,08,29,06,39,11.60
2007,08,29,06,40,11.60
2007,08,29,06,41,11.60
2007,08,29,06,42,11.60
2007,08,29,06,43,11.60
2007,08,29,06,44,11.60
2007,08,29,06,45,11.60
2007,08,29,06,46,11.60
2007,08,29,06,47,11.60
2007,08,29,06,48,11.60
2007,08,29,06,49,11.60
2007,08,29,06,50,11.60
2007,08,29,06,51,11.60
2007,08,29,06,52,11.60
2007,08,29,06,53,11.60
2007,08,29,06,54,11.60
2007,08,29,06,55,11.60
2007,08,29,06,56,11.60
2007,08,29,06,57,11.60
2007,08,29,06,58,11.60
2007,08,29,06,59,11.60
2007,08,29,07,00,11.60
2007,08,29,07,01,11.60
2007,08,29,07,02,11.60
2007,08,29,07,03,11.60
2007,08,29,07,04,11.60
2007,08,29,07,05,11.60
2007,08,29,07,06,11.70
2007,08,29,07,07,11.70
2007,08,29,07,08,11.70
2007,08,29,07,09,11.70
2007,08,29,07,10,11.70
2007,08,29,07,11,11.80
2007,08,29,07,12,11.80
2007,08,29,07,13,11.80
2007,08,29,07,14,11.80
2007,08,29,07,15,11.80
2007,08,29,07,16,11.80
2007,08,29,07,17,11.90
2007,08,29,07,18,11.90
2007,08,29,07,19,11.90
2007,08,29,07,20,12.00
2007,08,29,07,21,12.00
2007,08,29,07,22,12.00
2007,08,29,07,23,12.00
2007,08,29,07,24,12.00
2007,08,29,07,25,12.00
2007,08,29,07,26,12.10
2007,08,29,07,27,12.10
2007,08,29,07,28,12.10
2007,08,29,07,29,12.20
2007,08,29,07,30,12.20
2007,08,29,07,31,12.20
2007,08,29,07,32,12.30
2007,08,29,07,33,12.30
2007,08,29,07,34,12.30
2007,08,29,07,35,12.30
2007,08,29,07,36,12.30
2007,08,29,07,37,12.30
2007,08,29,07,38,12.40
2007,08,29,07,39,12.40
2007,08,29,07,40,12.40
2007,08,29,07,41,12.50
2007,08,29,07,42,12.60
2007,08,29,07,43,12.60
2007,08,29,07,44,12.70
2007,08,29,07,45,12.70
2007,08,29,07,46,12.80
2007,08,29,07,47,12.80
2007,08,29,07,48,12.80
2007,08,29,07,49,12.90
2007,08,29,07,50,13.00
2007,08,29,07,51,13.00
2007,08,29,07,52,13.00
2007,08,29,07,53,13.00
2007,08,29,07,54,13.00
2007,08,29,07,55,13.00
2007,08,29,07,56,13.00
2007,08,29,07,57,13.00
2007,08,29,07,58,13.00
2007,08,29,07,59,13.10
2007,08,29,08,00,13.10
2007,08,29,08,01,13.10
2007,08,29,08,02,13.10
2007,08,29,08,03,13.10
2007,08,29,08,04,13.20
2007,08,29,08,05,13.20
2007,08,29,08,06,13.20
2007,08,29,08,07,13.20
2007,08,29,08,08,13.20
2007,08,29,08,09,13.20
2007,08,29,08,10,13.30
2007,08,29,08,11,13.30
2007,08,29,08,12,13.30
2007,08,29,08,13,13.30
2007,08,29,08,14,13.30
2007,08,29,08,15,13.30
2007,08,29,08,16,13.40
2007,08,29,08,17,13.40
2007,08,29,08,18,13.40
2007,08,29,08,19,13.40
2007,08,29,08,20,13.40
2007,08,29,08,21,13.40
2007,08,29,08,22,13.40
2007,08,29,08,23,13.40
2007,08,29,08,24,13.40
2007,08,29,08,25,13.40
2007,08,29,08,26,13.50
2007,08,29,08,27,13.50
2007,08,29,08,28,13.50
2007,08,29,08,29,13.60
2007,08,29,08,30,13.60
2007,08,29,08,31,13.60
2007,08,29,08,32,13.60
2007,08,29,08,33,13.70
2007,08,29,08,34,13.70
2007,08,29,08,35,13.70
2007,08,29,08,36,13.80
2007,08,29,08,37,13.80
2007,08,29,08,38,13.80
2007,08,29,08,39,13.90
2007,08,29,08,40,14.00
2007,08,29,08,41,14.00
2007,08,29,08,42,14.10
2007,08,29,08,43,14.10
2007,08,29,08,44,14.10
2007,08,29,08,45,14.20
2007,08,29,08,46,14.20
2007,08,29,08,47,14.30
2007,08,29,08,48,14.30
2007,08,29,08,49,14.40
2007,08,29,08,50,14.60
2007,08,29,08,51,14.70
2007,08,29,08,52,14.90
2007,08,29,08,53,15.00
2007,08,29,08,54,15.20
2007,08,29,08,55,15.30
2007,08,29,08,56,15.40
2007,08,29,08,57,15.50
2007,08,29,08,58,15.50
2007,08,29,08,59,15.50
2007,08,29,09,00,15.40
2007,08,29,09,01,15.40
2007,08,29,09,02,15.30
2007,08,29,09,03,15.30
2007,08,29,09,04,15.30
2007,08,29,09,05,15.30
2007,08,29,09,06,15.30
2007,08,29,09,07,15.30
2007,08,29,09,08,15.30
2007,08,29,09,09,15.30
2007,08,29,09,10,15.40
2007,08,29,09,11,15.40
2007,08,29,09,12,15.40
2007,08,29,09,13,15.30
2007,08,29,09,14,15.30
2007,08,29,09,15,15.40
2007,08,29,09,16,15.40
2007,08,29,09,17,15.60
2007,08,29,09,18,15.80
2007,08,29,09,19,16.00
2007,08,29,09,20,16.20
2007,08,29,09,21,16.40
2007,08,29,09,22,16.70
2007,08,29,09,23,17.00
2007,08,29,09,24,17.30
2007,08,29,09,25,17.50
2007,08,29,09,26,17.70
2007,08,29,09,27,17.90
2007,08,29,09,28,18.00
2007,08,29,09,29,18.20
2007,08,29,09,30,18.20
2007,08,29,09,31,18.30
2007,08,29,09,32,18.30
2007,08,29,09,33,18.40
2007,08,29,09,34,18.40
2007,08,29,09,35,18.50
2007,08,29,09,36,18.50
2007,08,29,09,37,18.50
2007,08,29,09,38,18.60
2007,08,29,09,39,18.60
2007,08,29,09,40,18.60
2007,08,29,09,41,18.70
2007,08,29,09,42,18.80
2007,08,29,09,43,18.80
2007,08,29,09,44,18.90
2007,08,29,09,45,18.90
2007,08,29,09,46,18.90
2007,08,29,09,47,18.90
2007,08,29,09,48,18.90
2007,08,29,09,49,18.90
2007,08,29,09,50,18.90
2007,08,29,09,51,18.90
2007,08,29,09,52,18.90
2007,08,29,09,53,18.90
2007,08,29,09,54,18.90
2007,08,29,09,55,18.90
2007,08,29,09,56,18.90
2007,08,29,09,57,18.90
2007,08,29,09,58,18.90
2007,08,29,09,59,19.00
2007,08,29,10,00,19.10
2007,08,29,10,01,19.10
2007,08,29,10,02,19.20
2007,08,29,10,03,19.20
2007,08,29,10,04,19.20
2007,08,29,10,05,19.20
2007,08,29,10,06,19.30
2007,08,29,10,07,19.30
2007,08,29,10,08,19.40
2007,08,29,10,09,19.50
2007,08,29,10,10,19.50
2007,08,29,10,11,19.50
2007,08,29,10,12,19.50
2007,08,29,10,13,19.50
2007,08,29,10,14,19.50
2007,08,29,10,15,19.40
2007,08,29,10,16,19.50
2007,08,29,10,17,19.50
2007,08,29,10,18,19.50
2007,08,29,10,19,19.60
2007,08,29,10,20,19.70
2007,08,29,10,21,19.70
2007,08,29,10,22,19.80
2007,08,29,10,23,19.80
2007,08,29,10,24,19.80
2007,08,29,10,25,19.80
2007,08,29,10,26,19.90
2007,08,29,10,27,20.00
2007,08,29,10,28,20.10
2007,08,29,10,29,20.10
2007,08,29,10,30,20.20
2007,08,29,10,31,20.20
2007,08,29,10,32,20.30
2007,08,29,10,33,20.40
2007,08,29,10,34,20.50
2007,08,29,10,35,20.50
2007,08,29,10,36,20.50
2007,08,29,10,37,20.50
2007,08,29,10,38,20.50
2007,08,29,10,39,20.50
2007,08,29,10,40,20.50
2007,08,29,10,41,20.40
2007,08,29,10,42,20.40
2007,08,29,10,43,20.50
2007,08,29,10,44,20.60
2007,08,29,10,45,20.60
2007,08,29,10,46,20.70
2007,08,29,10,47,20.80
2007,08,29,10,48,20.90
2007,08,29,10,49,20.90
2007,08,29,10,50,21.00
2007,08,29,10,51,21.10
2007,08,29,10,52,21.20
2007,08,29,10,53,21.20
2007,08,29,10,54,21.20
2007,08,29,10,55,21.30
2007,08,29,10,56,21.30
2007,08,29,10,57,21.40
2007,08,29,10,58,21.50
2007,08,29,10,59,21.60
2007,08,29,11,00,21.60
2007,08,29,11,01,21.60
2007,08,29,11,02,21.60
2007,08,29,11,03,21.60
2007,08,29,11,04,21.60
2007,08,29,11,05,21.60
2007,08,29,11,06,21.70
2007,08,29,11,07,21.90
2007,08,29,11,08,22.00
2007,08,29,11,09,22.20
2007,08,29,11,10,22.20
2007,08,29,11,11,22.30
2007,08,29,11,12,22.30
2007,08,29,11,13,22.30
2007,08,29,11,14,22.30
2007,08,29,11,15,22.20
2007,08,29,11,16,22.20
2007,08,29,11,17,22.30
2007,08,29,11,18,22.30
2007,08,29,11,19,22.20
2007,08,29,11,20,22.20
2007,08,29,11,21,22.30
2007,08,29,11,22,22.40
2007,08,29,11,23,22.50
2007,08,29,11,24,22.60
2007,08,29,11,25,22.70
2007,08,29,11,26,22.80
2007,08,29,11,27,22.80
2007,08,29,11,28,22.90
2007,08,29,11,29,22.90
2007,08,29,11,30,22.90
2007,08,29,11,31,22.90
2007,08,29,11,32,23.00
2007,08,29,11,33,22.90
2007,08,29,11,34,22.90
2007,08,29,11,35,22.60
2007,08,29,11,36,22.30
2007,08,29,11,37,22.30
2007,08,29,11,38,22.30
2007,08,29,11,39,22.40
2007,08,29,11,40,22.40
2007,08,29,11,41,22.50
2007,08,29,11,42,22.50
2007,08,29,11,43,22.60
2007,08,29,11,44,22.70
2007,08,29,11,45,22.70
2007,08,29,11,46,22.70
2007,08,29,11,47,22.90
2007,08,29,11,48,23.00
2007,08,29,11,49,23.20
2007,08,29,11,50,23.20
2007,08,29,11,51,23.30
2007,08,29,11,52,23.30
2007,08,29,11,53,23.20
2007,08,29,11,54,23.20
2007,08,29,11,55,23.20
2007,08,29,11,56,23.10
2007,08,29,11,57,23.10
2007,08,29,11,58,23.10
2007,08,29,11,59,23.10
2007,08,29,12,00,23.00
2007,08,29,12,01,22.90
2007,08,29,12,02,22.80
2007,08,29,12,03,22.50
2007,08,29,12,04,22.10
2007,08,29,12,05,21.60
2007,08,29,12,06,21.20
2007,08,29,12,07,20.90
2007,08,29,12,08,20.70
2007,08,29,12,09,20.60
2007,08,29,12,10,20.40
2007,08,29,12,11,20.50
2007,08,29,12,12,20.60
2007,08,29,12,13,20.50
2007,08,29,12,14,20.30
2007,08,29,12,15,20.10
2007,08,29,12,16,20.10
2007,08,29,12,17,20.10
2007,08,29,12,18,20.20
2007,08,29,12,19,20.30
2007,08,29,12,20,20.40
2007,08,29,12,21,20.60
2007,08,29,12,22,20.70
2007,08,29,12,23,20.70
2007,08,29,12,24,21.20
2007,08,29,12,25,21.70
2007,08,29,12,26,22.10
2007,08,29,12,27,22.00
2007,08,29,12,28,21.80
2007,08,29,12,29,21.70
2007,08,29,12,30,21.60
2007,08,29,12,31,21.50
2007,08,29,12,32,21.30
2007,08,29,12,33,21.20
2007,08,29,12,34,21.00
2007,08,29,12,35,21.00
2007,08,29,12,36,20.90
2007,08,29,12,37,20.90
2007,08,29,12,38,20.90
2007,08,29,12,39,20.90
2007,08,29,12,40,20.90
2007,08,29,12,41,20.90
2007,08,29,12,42,20.90
2007,08,29,12,43,20.90
2007,08,29,12,44,20.80
2007,08,29,12,45,20.80
2007,08,29,12,46,20.80
2007,08,29,12,47,20.90
2007,08,29,12,48,20.90
2007,08,29,12,49,21.00
2007,08,29,12,50,21.00
2007,08,29,12,51,21.00
2007,08,29,12,52,21.00
2007,08,29,12,53,21.00
2007,08,29,12,54,21.00
2007,08,29,12,55,20.90
2007,08,29,12,56,20.90
2007,08,29,12,57,20.80
2007,08,29,12,58,20.80
2007,08,29,12,59,20.80
2007,08,29,13,00,20.80
2007,08,29,13,01,20.70
2007,08,29,13,02,20.70
2007,08,29,13,03,20.70
2007,08,29,13,04,20.70
2007,08,29,13,05,20.80
2007,08,29,13,06,20.80
2007,08,29,13,07,20.80
2007,08,29,13,08,20.70
2007,08,29,13,09,20.70
2007,08,29,13,10,20.60
2007,08,29,13,11,20.60
2007,08,29,13,12,20.50
2007,08,29,13,13,20.20
2007,08,29,13,14,20.00
2007,08,29,13,15,19.70
2007,08,29,13,16,19.40
2007,08,29,13,17,19.20
2007,08,29,13,18,19.00
2007,08,29,13,19,18.80
2007,08,29,13,20,18.60
2007,08,29,13,21,18.50
2007,08,29,13,22,18.50
2007,08,29,13,23,18.50
2007,08,29,13,24,18.50
2007,08,29,13,25,18.40
2007,08,29,13,26,18.50
2007,08,29,13,27,18.60
2007,08,29,13,28,18.60
2007,08,29,13,29,18.50
2007,08,29,13,30,18.30
2007,08,29,13,31,18.10
2007,08,29,13,32,17.90
2007,08,29,13,33,17.80
2007,08,29,13,34,17.80
2007,08,29,13,35,17.80
2007,08,29,13,36,17.70
2007,08,29,13,37,17.60
2007,08,29,13,38,17.60
2007,08,29,13,39,17.60
2007,08,29,13,40,17.50
2007,08,29,13,41,17.40
2007,08,29,13,42,17.30
2007,08,29,13,43,17.20
2007,08,29,13,44,17.00
2007,08,29,13,45,16.90
2007,08,29,13,46,16.90
2007,08,29,13,47,16.80
2007,08,29,13,48,16.70
2007,08,29,13,49,16.60
2007,08,29,13,50,16.50
2007,08,29,13,51,16.50
2007,08,29,13,52,16.60
2007,08,29,13,53,16.50
2007,08,29,13,54,16.40
2007,08,29,13,55,16.40
2007,08,29,13,56,16.40
2007,08,29,13,57,16.40
2007,08,29,13,58,16.40
2007,08,29,13,59,16.40
2007,08,29,14,00,16.40
2007,08,29,14,01,16.50
2007,08,29,14,02,16.50
2007,08,29,14,03,16.30
2007,08,29,14,04,16.30
2007,08,29,14,05,16.20
2007,08,29,14,06,16.20
2007,08,29,14,07,16.10
2007,08,29,14,08,15.90
2007,08,29,14,09,15.90
2007,08,29,14,10,15.80
2007,08,29,14,11,15.80
2007,08,29,14,12,15.80
2007,08,29,14,13,15.80
2007,08,29,14,14,15.80
2007,08,29,14,15,15.80
2007,08,29,14,16,15.80
2007,08,29,14,17,15.80
2007,08,29,14,18,15.80
2007,08,29,14,19,15.80
2007,08,29,14,20,15.90
2007,08,29,14,21,15.90
2007,08,29,14,22,16.00
2007,08,29,14,23,16.10
2007,08,29,14,24,16.10
2007,08,29,14,25,16.10
2007,08,29,14,26,16.10
2007,08,29,14,27,16.20
2007,08,29,14,28,16.20
2007,08,29,14,29,16.30
2007,08,29,14,30,16.30
2007,08,29,14,31,16.20
2007,08,29,14,32,16.10
2007,08,29,14,33,16.10
2007,08,29,14,34,16.10
2007,08,29,14,35,16.10
2007,08,29,14,36,16.10
2007,08,29,14,37,16.10
2007,08,29,14,38,16.10
2007,08,29,14,39,16.10
2007,08,29,14,40,16.10
2007,08,29,14,41,16.10
2007,08,29,14,42,16.10
2007,08,29,14,43,16.20
2007,08,29,14,44,16.20
2007,08,29,14,45,16.20
2007,08,29,14,46,16.20
2007,08,29,14,47,16.30
2007,08,29,14,48,16.30
2007,08,29,14,49,16.30
2007,08,29,14,50,16.40
2007,08,29,14,51,16.50
2007,08,29,14,52,16.60
2007,08,29,14,53,16.70
2007,08,29,14,54,16.80
2007,08,29,14,55,16.80
2007,08,29,14,56,16.80
2007,08,29,14,57,16.80
2007,08,29,14,58,16.80
2007,08,29,14,59,16.80
2007,08,29,15,00,16.80
2007,08,29,15,01,16.90
2007,08,29,15,02,16.90
2007,08,29,15,03,17.00
2007,08,29,15,04,17.00
2007,08,29,15,05,17.20
2007,08,29,15,06,17.30
2007,08,29,15,07,17.20
2007,08,29,15,08,17.10
2007,08,29,15,09,17.00
2007,08,29,15,10,16.90
2007,08,29,15,11,16.80
2007,08,29,15,12,16.70
2007,08,29,15,13,16.70
2007,08,29,15,14,16.80
2007,08,29,15,15,16.80
2007,08,29,15,16,16.80
2007,08,29,15,17,16.80
2007,08,29,15,18,16.80
2007,08,29,15,19,16.80
2007,08,29,15,20,16.80
2007,08,29,15,21,16.80
2007,08,29,15,22,16.80
2007,08,29,15,23,16.80
2007,08,29,15,24,16.70
2007,08,29,15,25,16.70
2007,08,29,15,26,16.70
2007,08,29,15,27,16.70
2007,08,29,15,28,16.70
2007,08,29,15,29,16.70
2007,08,29,15,30,16.70
2007,08,29,15,31,16.80
2007,08,29,15,32,16.80
2007,08,29,15,33,16.80
2007,08,29,15,34,16.80
2007,08,29,15,35,16.90
2007,08,29,15,36,16.90
2007,08,29,15,37,17.00
2007,08,29,15,38,17.10
2007,08,29,15,39,17.10
2007,08,29,15,40,17.10
2007,08,29,15,41,17.20
2007,08,29,15,42,17.20
2007,08,29,15,43,17.20
2007,08,29,15,44,17.30
2007,08,29,15,45,17.30
2007,08,29,15,46,17.30
2007,08,29,15,47,17.40
2007,08,29,15,48,17.40
2007,08,29,15,49,17.40
2007,08,29,15,50,17.50
2007,08,29,15,51,17.60
2007,08,29,15,52,17.60
2007,08,29,15,53,17.80
2007,08,29,15,54,17.90
2007,08,29,15,55,17.90
2007,08,29,15,56,18.10
2007,08,29,15,57,18.20
2007,08,29,15,58,18.20
2007,08,29,15,59,18.30
2007,08,29,16,00,18.30
2007,08,29,16,01,18.40
2007,08,29,16,02,18.50
2007,08,29,16,03,18.60
2007,08,29,16,04,18.70
2007,08,29,16,05,18.70
2007,08,29,16,06,18.70
2007,08,29,16,07,18.70
2007,08,29,16,08,18.70
2007,08,29,16,09,18.70
2007,08,29,16,10,18.70
2007,08,29,16,11,18.60
2007,08,29,16,12,18.50
2007,08,29,16,13,18.50
2007,08,29,16,14,18.50
2007,08,29,16,15,18.40
2007,08,29,16,16,18.40
2007,08,29,16,17,18.30
2007,08,29,16,18,18.30
2007,08,29,16,19,18.30
2007,08,29,16,20,18.40
2007,08,29,16,21,18.50
2007,08,29,16,22,18.50
2007,08,29,16,23,18.60
2007,08,29,16,24,18.60
2007,08,29,16,25,18.60
2007,08,29,16,26,18.60
2007,08,29,16,27,18.60
2007,08,29,16,28,18.70
2007,08,29,16,29,18.70
2007,08,29,16,30,18.70
2007,08,29,16,31,18.80
2007,08,29,16,32,18.80
2007,08,29,16,33,18.80
2007,08,29,16,34,18.90
2007,08,29,16,35,18.90
2007,08,29,16,36,19.00
2007,08,29,16,37,19.00
2007,08,29,16,38,18.90
2007,08,29,16,39,18.90
2007,08,29,16,40,18.90
2007,08,29,16,41,18.90
2007,08,29,16,42,18.90
2007,08,29,16,43,18.80
2007,08,29,16,44,18.70
2007,08,29,16,45,18.70
2007,08,29,16,46,18.70
2007,08,29,16,47,18.70
2007,08,29,16,48,18.70
2007,08,29,16,49,18.70
2007,08,29,16,50,18.70
2007,08,29,16,51,18.80
2007,08,29,16,52,18.80
2007,08,29,16,53,18.90
2007,08,29,16,54,18.90
2007,08,29,16,55,19.10
2007,08,29,16,56,19.10
2007,08,29,16,57,19.20
2007,08,29,16,58,19.30
2007,08,29,16,59,19.30
2007,08,29,17,00,19.40
2007,08,29,17,01,19.40
2007,08,29,17,02,19.50
2007,08,29,17,03,19.50
2007,08,29,17,04,19.50
2007,08,29,17,05,19.50
2007,08,29,17,06,19.50
2007,08,29,17,07,19.50
2007,08,29,17,08,19.50
2007,08,29,17,09,19.50
2007,08,29,17,10,19.50
2007,08,29,17,11,19.50
2007,08,29,17,12,19.50
2007,08,29,17,13,19.60
2007,08,29,17,14,19.70
2007,08,29,17,15,19.70
2007,08,29,17,16,19.80
2007,08,29,17,17,19.80
2007,08,29,17,18,19.80
2007,08,29,17,19,19.80